Skip Page Navigation
NASA JPL Caltech
NASA Logo - Jet Propulsion Laboratory + View the NASA Portal
+ Near-Earth Object (NEO) Program
Search JPL
JPL Home Earth Solar System Stars & Galaxies Technology
JPL Solar System Dynamics
BODIES ORBITS EPHEMERIDES TOOLS PHYSICAL DATA DISCOVERY FAQ SITE MAP
JPL Small-Body Database Browser
Search: [ help ]  
(2007 FA)
Classification: Apollo [NEO, PHA]          SPK-ID: 3371147
Ephemeris | Orbit Diagram | Orbital Elements | Physical Parameters | Close-Approach Data ]

[ hide orbit diagram ]
Orbit Diagram
Note: Make sure you have Java enabled on your browser to see the applet. This applet is provided as a 3D orbit visualization tool. The applet was implemented using 2-body methods, and hence should not be used for determining accurate long-term trajectories (over several years or decades) or planetary encounter circumstances. For accurate long-term ephemerides, please instead use our Horizons system.
Orbit Viewer

Additional Notes: the orbits shown in the applet are color coded. The planets are white lines, and the asteroid/comet is a blue line. The bright white line indicates the portion of the orbit that is above the ecliptic plane, and the darker portion is below the ecliptic plane. Likewise for the asteroid/comet orbit, the light blue indicates the portion above the ecliptic plane, and the dark blue the portion below the ecliptic plane.

Orbit Viewer applet originally written and kindly provided by Osamu Ajiki (AstroArts), and further modified by Ron Baalke (JPL).


Orbital Elements at Epoch 2456400.5 (2013-Apr-18.0) TDB
Reference: JPL 21 (heliocentric ecliptic J2000)
 Element Value Uncertainty (1-sigma)   Units 
e .2658641151896048 2.6421e-07  
a 1.250319278607236 7.1271e-09 AU
q .917904249895818 3.2995e-07 AU
i 16.32626690379423 3.5633e-05 deg
node 156.4664063557515 7.524e-05 deg
peri 135.3413643947187 8.692e-05 deg
M 50.88798113988655 4.8986e-05 deg
tp 2456328.315734937531
(2013-Feb-04.81573494)
6.9258e-05 JED
period 510.6576217094311
1.40
4.3663e-06
1.195e-08
d
yr
n .7049733220369779 6.0278e-09 deg/d
Q 1.582734307318653 9.022e-09 AU
  Orbit Determination Parameters
   # obs. used (total)      82  
   data-arc span      2713 days (7.43 yr)  
   first obs. used      2000-03-06  
   last obs. used      2007-08-10  
   planetary ephem.      DE405  
   SB-pert. ephem.      SB405-CPV-2  
   condition code      0  
   fit RMS      .63531  
   data source      ORB  
   producer      Otto Matic  
   solution date      2011-Oct-08 00:50:46  

Additional Information
 Earth MOID = .0275855 AU 
 T_jup = 5.069 
[ show covariance matrix ]

Ephemeris | Orbit Diagram | Orbital Elements | Physical Parameters | Close-Approach Data ]

Physical Parameter Table
Parameter Symbol Value Units Sigma Reference Notes
absolute magnitude H 20.184 mag .4462 21 autocmod 2.5a

[ show close-approach data ]
Ephemeris | Orbit Diagram | Orbital Elements | Physical Parameters | Close-Approach Data ]
ABOUT SSD CREDITS/AWARDS PRIVACY/COPYRIGHT GLOSSARY LINKS
FirstGov 2013-May-20 14:46 UT
(server date/time)  
NASA Home Page
Site Manager:   Donald K. Yeomans
Webmaster  Alan B. Chamberlin